TimeEDT,TemperatureF,Dew PointF,Humidity,Sea Level PressureIn,VisibilityMPH,Wind Direction,Wind SpeedMPH,Gust SpeedMPH,PrecipitationIn,Events,Conditions,WindDirDegrees,DateUTC
12:51 AM,78.1,70.0,76,30.20,10.0,Calm,Calm,-,N/A,,Clear,0,2013-07-16 04:51:00
1:51 AM,77.0,69.1,76,30.20,10.0,Calm,Calm,-,N/A,,Clear,0,2013-07-16 05:51:00
2:51 AM,75.0,69.1,82,30.19,10.0,Calm,Calm,-,N/A,,Clear,0,2013-07-16 06:51:00
3:51 AM,75.9,69.1,79,30.20,10.0,North,3.5,-,N/A,,Clear,360,2013-07-16 07:51:00
4:51 AM,75.0,68.0,79,30.20,10.0,NW,3.5,-,N/A,,Clear,310,2013-07-16 08:51:00
5:51 AM,72.0,66.9,84,30.22,10.0,NNW,5.8,-,N/A,,Clear,330,2013-07-16 09:51:00
6:51 AM,75.9,66.9,74,30.23,10.0,Calm,Calm,-,N/A,,Clear,0,2013-07-16 10:51:00
7:51 AM,78.1,68.0,71,30.24,10.0,NNW,3.5,-,N/A,,Clear,340,2013-07-16 11:51:00
8:51 AM,82.0,69.1,65,30.25,10.0,NNW,4.6,-,N/A,,Clear,340,2013-07-16 12:51:00
9:51 AM,84.0,69.1,61,30.24,10.0,North,8.1,-,N/A,,Clear,350,2013-07-16 13:51:00
10:51 AM,87.1,69.1,55,30.22,10.0,North,6.9,-,N/A,,Clear,10,2013-07-16 14:51:00
11:51 AM,89.1,69.1,52,30.22,10.0,NNW,5.8,-,N/A,,Clear,330,2013-07-16 15:51:00
12:51 PM,91.0,68.0,47,30.20,10.0,North,6.9,-,N/A,,Clear,350,2013-07-16 16:51:00
1:51 PM,91.9,66.9,44,30.19,10.0,NNW,11.5,-,N/A,,Scattered Clouds,330,2013-07-16 17:51:00
2:51 PM,91.9,66.9,44,30.18,10.0,North,6.9,-,N/A,,Partly Cloudy,360,2013-07-16 18:51:00
3:51 PM,93.0,66.0,41,30.17,10.0,North,8.1,-,N/A,,Partly Cloudy,360,2013-07-16 19:51:00
4:51 PM,93.0,68.0,44,30.16,10.0,North,10.4,-,N/A,,Partly Cloudy,350,2013-07-16 20:51:00
5:51 PM,91.0,66.9,45,30.15,10.0,NNE,5.8,-,N/A,,Mostly Cloudy,30,2013-07-16 21:51:00
6:51 PM,86.0,69.1,57,30.16,10.0,North,3.5,-,N/A,,Partly Cloudy,360,2013-07-16 22:51:00
7:51 PM,84.0,71.1,65,30.17,10.0,Calm,Calm,-,N/A,,Clear,0,2013-07-16 23:51:00
8:51 PM,82.9,68.0,60,30.17,10.0,Calm,Calm,-,N/A,,Clear,0,2013-07-17 00:51:00
9:51 PM,81.0,69.1,67,30.19,10.0,Calm,Calm,-,N/A,,Clear,0,2013-07-17 01:51:00
10:51 PM,78.1,69.1,74,30.19,10.0,Calm,Calm,-,N/A,,Clear,0,2013-07-17 02:51:00
11:51 PM,78.1,69.1,74,30.19,10.0,Calm,Calm,-,N/A,,Clear,0,2013-07-17 03:51:00